カタログに戻る

ELECTRON KICK STAGE R/B

運用中SSO
NORAD 58901·ROCKET BODY·🇺🇸 United States

打ち上げ Jan 31, 2024 から Rocket Lab Launch Complex 1

Loading…

次のパス (今後24時間)

TLE

最新Source: Space-Track

元期: Sep 14, 2026, 14:31 UTC

1 58901U 24022C   26257.60523706  .00060682  00000-0  58670-3 0  9995
2 58901  97.3870 118.7800 0006238 110.1262 250.0670 15.66231416146710

AllMySatでELECTRON KICK STAGE R/Bをリアルタイム追跡

Download on the App Store